Meteo Giornale » Osservazioni meteo Italia » Bergamo-Orio Al Serio

ore: 10:50 - Osservazioni Meteo Bergamo-Orio Al Serio
Lat. 45° 40' N Lon. 9° 42' E Alt. 238 metri s.l.m.

sereno Europe/Rome

27 °C

Sereno

Temp. 24 Ore

21 °C

30 °C

Nord

9.3 Km/h

Dew point 16 °C

Umidità 50 %

Visibilità  10 Km

Il sole sorge alle ore 05:29

Il sole tramonta alle ore 21:15

Data e Ora Cielo e Fenomeni T °C DP °C Um. % Pres. hPa Vis. km Vento km/h
Oggi h: 10:50 sereno Sereno 27 16 50 1016 10 N 9.3
Oggi h: 10:20 sereno Sereno 26 16 54 1016 10 N 5.5
Oggi h: 09:50 sereno Sereno 26 16 54 1017 10 N 1.8
Oggi h: 09:20 sereno Sereno 24 17 64 1017 10 N 7.4
Oggi h: 08:50 poco_nuvoloso Poco Nuvoloso 23 18 73 1017 10 N 9.3
Oggi h: 08:20 nuvoloso Nuvoloso 22 18 78 1016 10 N 11.1
Oggi h: 07:50 nuvoloso Nuvoloso 21 17 77 1016 10 N 5.5
Oggi h: 07:20 nuvoloso Nuvoloso 21 17 77 1017 10 N 13
Oggi h: 06:50 nuvoloso Nuvoloso 21 17 77 1017 10 N 7.4
Oggi h: 06:20 molto_nuvoloso Molto Nuvoloso 21 17 77 1016 10 N 5.5
Oggi h: 05:50 molto_nuvoloso Molto Nuvoloso 21 17 77 1017 10 N 5.5
Oggi h: 05:20 molto_nuvoloso Molto Nuvoloso 21 16 73 1016 10 N 5.5
Oggi h: 04:50 nuvoloso Nuvoloso 21 17 77 1016 10 N 5.5
Oggi h: 04:20 nuvoloso Nuvoloso 21 17 77 1016 10 N 5.5
Oggi h: 03:50 nuvoloso Nuvoloso 21 16 73 1016 10 N/NE 7.4
Oggi h: 03:20 nuvoloso Nuvoloso 22 16 68 1016 10 N 7.4
Oggi h: 02:50 poco_nuvoloso Poco Nuvoloso 21 16 73 1016 0 N 9.3
Oggi h: 02:20 poco_nuvoloso Poco Nuvoloso 21 16 73 1016 10 N/NE 7.4
Oggi h: 01:50 poco_nuvoloso Poco Nuvoloso 21 16 73 1016 10 N/NE 7.4
Oggi h: 01:20 sereno Sereno 21 16 73 1017 10 N/NE 7.4
Oggi h: 00:50 sereno Sereno 21 17 77 1016 10 N 7.4
Oggi h: 00:20 nuvoloso Nuvoloso 21 17 77 1016 10 N/NE 9.3
Ieri h: 23:50 nuvoloso Nuvoloso 22 17 73 1016 10 N 5.5
Ieri h: 23:20 nuvoloso Nuvoloso 22 17 73 1016 10 N 5.5
Ieri h: 22:50 sereno Sereno 22 17 73 1016 10 N 5.5
Ieri h: 22:20 poco_nuvoloso Poco Nuvoloso 23 18 73 1015 10 N 7.4
Ieri h: 21:50 poco_nuvoloso Poco Nuvoloso 23 19 78 1015 10 N/NE 7.4
Ieri h: 21:20 nuvoloso Nuvoloso 25 17 61 1015 10 E 7.4
Ieri h: 20:50 nuvoloso Nuvoloso 26 17 57 1015 10 NE 11.1
Ieri h: 20:20 nuvoloso Nuvoloso 28 15 45 1014 10 SE 11.1
Ieri h: 19:50 nuvoloso Nuvoloso 28 15 45 1014 10 SE 13
Ieri h: 19:20 nuvoloso Nuvoloso 29 14 39 1014 10 S/SE 13
Ieri h: 18:50 nuvoloso Nuvoloso 30 14 37 1014 10 N 5.5
Ieri h: 18:20 poco_nuvoloso Poco Nuvoloso 30 15 40 1014 10 N 5.5
Ieri h: 17:20 nuvoloso Nuvoloso 30 13 35 1015 10 N 5.5
Ieri h: 16:50 nuvoloso Nuvoloso 30 14 37 1015 10 E/SE 11.1
Ieri h: 16:20 nuvoloso Nuvoloso 30 14 37 1015 10 E/SE 9.3
Ieri h: 15:50 nuvoloso Nuvoloso 30 14 37 1015 10 N 5.5
Ieri h: 15:20 nuvoloso Nuvoloso 30 14 37 1016 10 SE 9.3
Ieri h: 14:50 nuvoloso Nuvoloso 28 15 45 1016 10 N 5.5
Ieri h: 14:20 nuvoloso Nuvoloso 29 15 42 1016 10 N 7.4
Ieri h: 13:50 poco_nuvoloso Poco Nuvoloso 29 15 42 1016 10 N 7.4
Ieri h: 13:20 poco_nuvoloso Poco Nuvoloso 28 14 42 1017 10 N 3.7
Ieri h: 12:50 sereno Sereno 28 14 42 1017 10 N 7.4
Ieri h: 12:20 sereno Sereno 28 14 42 1017 10 E/SE 13
Ieri h: 11:50 sereno Sereno 28 14 42 1017 10 N 11.1